• In Hungary
  • List of Countries
  • For 7 days
  • Water Temperature
  • Satellite Maps
  • Weather Map
  • News
  • Weather Widgets
  • user-avatar
    Login

    Hourly Weather Czepielowice

    Today, 17 August, Friday

    Time Temperature Precipitation Wind Pressure Humidity
    00:00 +20°C° 0 mm 2 mps 751 mmHg 68%
    01:00 +19°C° 0 mm 2 mps 751 mmHg 71%
    02:00 +19°C° 0 mm 2 mps 751 mmHg 73%
    03:00 +18°C° 0 mm 2 mps 750 mmHg 76%
    04:00 +18°C° 0 mm 2 mps 750 mmHg 79%
    05:00 +19°C° 0 mm 2 mps 750 mmHg 77%
    06:00 +20°C° 0 mm 2 mps 750 mmHg 74%
    07:00 +21°C° 0 mm 2 mps 750 mmHg 72%
    08:00 +24°C° 0 mm 2 mps 750 mmHg 66%
    09:00 +26°C° 0 mm 2 mps 750 mmHg 59%
    10:00 +27°C° 0 mm 2 mps 750 mmHg 53%
    11:00 +28°C° 0 mm 2 mps 750 mmHg 49%
    12:00 +29°C° 0 mm 2 mps 750 mmHg 45%
    13:00 +30°C° 0 mm 1 mps 750 mmHg 41%
    14:00 +30°C° 0 mm 1 mps 750 mmHg 40%
    15:00 +30°C° 0 mm 1 mps 749 mmHg 39%
    16:00 +30°C° 0 mm 1 mps 749 mmHg 38%
    17:00 +29°C° 0 mm 1 mps 749 mmHg 43%
    18:00 +27°C° 0 mm 1 mps 749 mmHg 47%
    19:00 +26°C° 0 mm 1 mps 749 mmHg 52%
    20:00 +25°C° 0 mm 1 mps 749 mmHg 54%
    21:00 +24°C° 0 mm 1 mps 750 mmHg 56%
    22:00 +24°C° 0 mm 1 mps 750 mmHg 58%
    23:00 +23°C° 0 mm 1 mps 750 mmHg 61%

    Tomorrow, 18 August, Saturday

    Time Temperature Precipitation Wind Pressure Humidity
    00:00 +23°C° 0 mm 1 mps 750 mmHg 63%
    01:00 +22°C° 0 mm 1 mps 750 mmHg 65%
    02:00 +22°C° 0 mm 1 mps 750 mmHg 66%
    03:00 +21°C° 0 mm 1 mps 750 mmHg 67%
    04:00 +21°C° 0 mm 1 mps 750 mmHg 68%
    05:00 +22°C° 0 mm 1 mps 751 mmHg 66%
    06:00 +23°C° 0 mm 1 mps 751 mmHg 64%
    07:00 +24°C° 0 mm 1 mps 751 mmHg 62%
    08:00 +25°C° 0 mm 2 mps 751 mmHg 58%
    09:00 +27°C° 0 mm 2 mps 752 mmHg 54%
    10:00 +28°C° 0 mm 2 mps 752 mmHg 51%
    11:00 +29°C° 0.1 mm 2 mps 752 mmHg 49%
    12:00 +30°C° 0.1 mm 2 mps 752 mmHg 46%
    13:00 +30°C° 0.1 mm 2 mps 751 mmHg 44%
    14:00 +30°C° 0 mm 3 mps 751 mmHg 46%
    15:00 +30°C° 0 mm 3 mps 751 mmHg 47%
    16:00 +30°C° 0 mm 3 mps 751 mmHg 48%
    17:00 +28°C° 0 mm 3 mps 751 mmHg 53%
    18:00 +27°C° 0 mm 3 mps 752 mmHg 58%
    19:00 +26°C° 0 mm 2 mps 752 mmHg 63%
    20:00 +25°C° 0.2 mm 2 mps 752 mmHg 66%
    21:00 +24°C° 0.2 mm 2 mps 752 mmHg 70%
    22:00 +23°C° 0.2 mm 2 mps 753 mmHg 73%
    23:00 +21°C° 0.3 mm 2 mps 753 mmHg 77%

    Day after tomorrow, 19 August, Sunday

    Time Temperature Precipitation Wind Pressure Humidity
    00:00 +21°C° 0.3 mm 2 mps 753 mmHg 80%
    01:00 +20°C° 0.3 mm 2 mps 753 mmHg 84%
    02:00 +20°C° 0 mm 2 mps 753 mmHg 86%
    03:00 +19°C° 0 mm 2 mps 753 mmHg 88%
    04:00 +20°C° 0 mm 1 mps 753 mmHg 91%
    05:00 +21°C° 0 mm 1 mps 753 mmHg 87%
    06:00 +21°C° 0 mm 2 mps 753 mmHg 83%
    07:00 +21°C° 0 mm 2 mps 754 mmHg 80%
    08:00 +24°C° 0 mm 2 mps 754 mmHg 73%
    09:00 +25°C° 0 mm 2 mps 754 mmHg 65%
    10:00 +27°C° 0 mm 2 mps 754 mmHg 58%
    11:00 +27°C° 0 mm 2 mps 753 mmHg 55%
    12:00 +28°C° 0 mm 2 mps 753 mmHg 52%
    13:00 +28°C° 0 mm 2 mps 753 mmHg 49%
    14:00 +29°C° 0 mm 2 mps 753 mmHg 47%
    15:00 +29°C° 0 mm 2 mps 753 mmHg 45%
    16:00 +29°C° 0 mm 2 mps 752 mmHg 44%
    17:00 +27°C° 0 mm 1 mps 752 mmHg 48%
    18:00 +26°C° 0 mm 1 mps 752 mmHg 51%
    19:00 +25°C° 0 mm 1 mps 753 mmHg 55%
    20:00 +24°C° 0 mm 1 mps 753 mmHg 57%
    21:00 +23°C° 0 mm 1 mps 753 mmHg 59%
    22:00 +22°C° 0 mm 1 mps 753 mmHg 61%
    23:00 +22°C° 0 mm 1 mps 753 mmHg 62%

    20 August, Monday

    Time Temperature Precipitation Wind Pressure Humidity
    00:00 +21°C° 0 mm 1 mps 753 mmHg 64%
    01:00 +21°C° 0 mm 1 mps 753 mmHg 66%
    02:00 +18°C° 0 mm 0 mps 753 mmHg 67%
    03:00 +18°C° 0 mm 0 mps 753 mmHg 68%
    04:00 +18°C° 0 mm 0 mps 752 mmHg 69%
    05:00 +19°C° 0 mm 0 mps 753 mmHg 66%
    06:00 +20°C° 0 mm 0 mps 753 mmHg 64%
    07:00 +23°C° 0 mm 1 mps 753 mmHg 61%
    08:00 +25°C° 0 mm 1 mps 753 mmHg 55%
    09:00 +27°C° 0 mm 1 mps 753 mmHg 50%
    10:00 +28°C° 0 mm 1 mps 753 mmHg 44%
    11:00 +29°C° 0 mm 1 mps 752 mmHg 41%
    12:00 +30°C° 0 mm 1 mps 752 mmHg 38%
    13:00 +31°C° 0 mm 1 mps 752 mmHg 35%
    14:00 +31°C° 0 mm 1 mps 752 mmHg 35%
    15:00 +31°C° 0 mm 1 mps 751 mmHg 35%
    16:00 +31°C° 0 mm 1 mps 751 mmHg 35%
    17:00 +29°C° 0 mm 1 mps 751 mmHg 39%
    18:00 +28°C° 0 mm 1 mps 751 mmHg 43%
    19:00 +26°C° 0 mm 1 mps 751 mmHg 48%
    20:00 +25°C° 0 mm 1 mps 751 mmHg 49%
    21:00 +25°C° 0 mm 1 mps 751 mmHg 51%
    22:00 +24°C° 0 mm 2 mps 751 mmHg 52%
    23:00 +24°C° 0 mm 2 mps 751 mmHg 54%

    21 August, Tuesday

    Time Temperature Precipitation Wind Pressure Humidity
    00:00 +23°C° 0 mm 2 mps 751 mmHg 56%
    01:00 +23°C° 0 mm 1 mps 751 mmHg 58%
    02:00 +22°C° 0 mm 1 mps 751 mmHg 60%
    03:00 +22°C° 0 mm 1 mps 751 mmHg 62%
    04:00 +22°C° 0 mm 1 mps 751 mmHg 63%
    05:00 +23°C° 0 mm 1 mps 751 mmHg 62%
    06:00 +24°C° 0 mm 1 mps 752 mmHg 61%
    07:00 +25°C° 0 mm 1 mps 752 mmHg 60%
    08:00 +26°C° 0 mm 2 mps 752 mmHg 55%
    09:00 +28°C° 0 mm 2 mps 752 mmHg 51%
    10:00 +29°C° 0 mm 2 mps 752 mmHg 46%
    11:00 +30°C° 0 mm 2 mps 752 mmHg 44%
    12:00 +31°C° 0 mm 2 mps 752 mmHg 42%
    13:00 +31°C° 0 mm 2 mps 752 mmHg 40%
    14:00 +31°C° 0 mm 2 mps 752 mmHg 42%
    15:00 +30°C° 0 mm 2 mps 751 mmHg 45%
    16:00 +30°C° 0 mm 2 mps 751 mmHg 47%
    17:00 +28°C° 0 mm 2 mps 751 mmHg 51%
    18:00 +27°C° 0 mm 2 mps 751 mmHg 55%
    19:00 +26°C° 0 mm 1 mps 751 mmHg 59%
    20:00 +25°C° 0 mm 1 mps 751 mmHg 61%
    21:00 +25°C° 0 mm 1 mps 752 mmHg 62%
    22:00 +24°C° 0 mm 1 mps 752 mmHg 64%
    23:00 +24°C° 0 mm 1 mps 752 mmHg 65%

    22 August, Wednesday

    Time Temperature Precipitation Wind Pressure Humidity
    00:00 +24°C° 0 mm 1 mps 752 mmHg 66%
    01:00 +23°C° 0 mm 1 mps 752 mmHg 66%
    02:00 +23°C° 0 mm 1 mps 751 mmHg 67%
    03:00 +23°C° 0 mm 1 mps 751 mmHg 68%
    04:00 +22°C° 0 mm 1 mps 751 mmHg 69%
    05:00 +23°C° 0 mm 1 mps 751 mmHg 67%
    06:00 +24°C° 0 mm 1 mps 751 mmHg 65%
    07:00 +25°C° 0 mm 1 mps 751 mmHg 63%
    08:00 +26°C° 0 mm 1 mps 751 mmHg 58%
    09:00 +28°C° 0 mm 1 mps 751 mmHg 54%
    10:00 +29°C° 0 mm 1 mps 751 mmHg 49%
    11:00 +30°C° 0 mm 1 mps 751 mmHg 46%
    12:00 +31°C° 0 mm 1 mps 750 mmHg 42%
    13:00 +32°C° 0 mm 1 mps 750 mmHg 39%
    14:00 +32°C° 0 mm 1 mps 750 mmHg 40%
    15:00 +32°C° 0 mm 1 mps 750 mmHg 41%
    16:00 +31°C° 0 mm 1 mps 750 mmHg 42%
    17:00 +30°C° 0 mm 1 mps 749 mmHg 46%
    18:00 +29°C° 0 mm 1 mps 749 mmHg 49%
    19:00 +25°C° 0 mm 0 mps 749 mmHg 53%
    20:00 +25°C° 0 mm 0 mps 749 mmHg 55%
    21:00 +26°C° 0 mm 1 mps 750 mmHg 57%
    22:00 +26°C° 0 mm 1 mps 750 mmHg 59%
    23:00 +25°C° 0 mm 1 mps 750 mmHg 61%
    Show more